St. George, UT

7:21 PM MST on November 16, 2019 (GMT -0700)
Saint George Municipal

Weather History for KSGU - October, 2019

Change the Weather History Date:

Tuesday, October 22, 2019

  Actual Average Record
Temperature  
Mean Temperature 62 °F -  
Max Temperature 78 °F 77 °F 89 °F (2003)
Min Temperature 46 °F 44 °F 31 °F (1935)
Degree Days  
Heating Degree Days 4    
Growing Degree Days 12 (Base 50)    
Moisture  
Dew Point 20 °F    
Average Humidity 22    
Maximum Humidity 30    
Minimum Humidity 15    
Precipitation  
Precipitation 0.00 in - - ()
Sea Level Pressure  
Sea Level Pressure 30.19 in    
Wind  
Wind Speed 2 mph (South)    
Max Wind Speed 6 mph    
Max Gust Speed -    
Visibility 10 miles    
Events      
Averages and records for this station are not official NWS values.
T = Trace of Precipitation, MM = Missing Value Source: NWS Daily Summary

Daily Weather History Graph

Daily Weather History Graph

Search for Another Location

Airport or City:

Astronomy

Oct. 22, 2019 Rise Set
Actual Time 7:48 AM MDT 6:48 PM MDT
Civil Twilight 7:21 AM MDT 7:14 PM MDT
Nautical Twilight 6:51 AM MDT 7:44 PM MDT
Astronomical Twilight 6:21 AM MDT 8:15 PM MDT
Moon 1:14 AM MDT (10/22) 3:49 PM MDT (10/22)
Length of Visible Light 11h 52m
Length of Day
11h 00m
Last Quarter, 36% of the Moon is Illuminated
Oct 22
Last Quarter
Oct 27
New
Nov 4
First Quarter
Nov 12
Full
Nov 19
Last Quarter

Hourly Weather History & Observations

Time (MDT) Temp. Windchill Dew Point Humidity Pressure Visibility Wind Dir Wind Speed Gust Speed Precip Events Conditions
12:56 AM 52.0 °F - 17.1 °F 25% 30.25 in 10.0 mi Calm Calm - N/A   Clear
1:56 AM 53.1 °F - 18.0 °F 25% 30.25 in 10.0 mi South 3.5 mph - N/A   Clear
2:56 AM 50.0 °F - 17.1 °F 27% 30.26 in 10.0 mi SSE 3.5 mph - N/A   Clear
3:56 AM 50.0 °F - 17.1 °F 27% 30.25 in 10.0 mi Calm Calm - N/A   Clear
4:56 AM 46.9 °F - 16.0 °F 29% 30.25 in 10.0 mi SE 4.6 mph - N/A   Clear
5:56 AM 48.0 °F - 16.0 °F 28% 30.27 in 10.0 mi Variable 3.5 mph - N/A   Clear
6:56 AM 46.0 °F 43.9 °F 16.0 °F 30% 30.29 in 10.0 mi South 4.6 mph - N/A   Clear
7:56 AM 46.9 °F - 16.0 °F 29% 30.30 in 10.0 mi SSE 5.8 mph - N/A   Clear
8:56 AM 50.0 °F - 17.1 °F 27% 30.30 in 10.0 mi SSE 3.5 mph - N/A   Clear
9:56 AM 53.1 °F - 18.0 °F 25% 30.32 in 10.0 mi Calm Calm - N/A   Clear
10:56 AM 57.9 °F - 18.0 °F 21% 30.30 in 10.0 mi WSW 3.5 mph - N/A   Clear
11:56 AM 61.0 °F - 19.9 °F 21% 30.27 in 10.0 mi Calm Calm - N/A   Clear
12:56 PM 64.9 °F - 23.0 °F 20% 30.25 in 10.0 mi West 3.5 mph - N/A   Clear
1:56 PM 69.1 °F - 24.1 °F 18% 30.19 in 10.0 mi Calm Calm - N/A   Clear
2:56 PM 71.1 °F - 24.1 °F 17% 30.14 in 10.0 mi Calm Calm - N/A   Clear
3:56 PM 73.9 °F - 24.1 °F 16% 30.11 in 10.0 mi SSE 3.5 mph - N/A   Clear
4:56 PM 77.0 °F - 25.0 °F 15% 30.09 in 10.0 mi Calm Calm - N/A   Clear
5:56 PM 75.9 °F - 25.0 °F 15% 30.06 in 10.0 mi Calm Calm - N/A   Clear
6:56 PM 73.9 °F - 24.1 °F 16% 30.06 in 10.0 mi Calm Calm - N/A   Clear
7:56 PM 69.1 °F - 23.0 °F 18% 30.08 in 10.0 mi Calm Calm - N/A   Clear
8:56 PM 64.9 °F - 23.0 °F 20% 30.08 in 10.0 mi South 3.5 mph - N/A   Clear
9:56 PM 64.0 °F - 21.9 °F 20% 30.07 in 10.0 mi South 3.5 mph - N/A   Clear
10:56 PM 62.1 °F - 23.0 °F 22% 30.08 in 10.0 mi SSW 3.5 mph - N/A   Clear
11:56 PM 57.9 °F - 21.0 °F 24% 30.08 in 10.0 mi Calm Calm - N/A   Clear